ARG1601 SAOU-SAEZ

Flight info

Callsign ARG1601
Flight time 0h 58m
Altitude 39000
Route MORRO2G MORRO DCT KOVUN UT670 SNT SNT7U
Aircraft E190/M-SDE3GILORVW/S

Departure

Time 2026-05-06 00:21
Airport Brigadier Mayor D Cesar Raul Ojeda Airport (SAOU)

Arrival

Time 2026-05-06 01:20
Airport Ezeiza International Airport - Ministro Pistarini (SAEZ)
Time Latitude Longitude Altitude Speed Heading
2026-05-05 23:36 -33.27535 -66.35127 2300 ft 0 kts 104°
2026-05-06 00:11 -33.27534 -66.35128 2273 ft 1 kts 104°
2026-05-06 00:11 -33.27529 -66.35156 2300 ft 4 kts 89°
2026-05-06 00:11 -33.27533 -66.35181 2302 ft 4 kts 17°
2026-05-06 00:11 -33.27538 -66.35183 2300 ft 0 kts 322°
2026-05-06 00:16 -33.27535 -66.35186 2303 ft 3 kts 322°
2026-05-06 00:16 -33.27486 -66.35231 2300 ft 14 kts 322°
2026-05-06 00:17 -33.27379 -66.35331 2300 ft 25 kts 322°
2026-05-06 00:17 -33.27263 -66.35442 2300 ft 18 kts 321°
2026-05-06 00:17 -33.27258 -66.35552 2303 ft 14 kts 230°
2026-05-06 00:17 -33.27330 -66.35627 2307 ft 13 kts 214°
2026-05-06 00:18 -33.27413 -66.35660 2306 ft 13 kts 185°
2026-05-06 00:18 -33.27508 -66.35670 2309 ft 14 kts 185°
2026-05-06 00:18 -33.27610 -66.35680 2309 ft 15 kts 185°
2026-05-06 00:18 -33.27715 -66.35691 2310 ft 15 kts 185°
2026-05-06 00:19 -33.27827 -66.35703 2307 ft 18 kts 185°
2026-05-06 00:19 -33.27978 -66.35737 2305 ft 27 kts 187°
2026-05-06 00:19 -33.28188 -66.35763 2304 ft 34 kts 185°
2026-05-06 00:19 -33.28443 -66.35799 2306 ft 34 kts 185°
2026-05-06 00:20 -33.28584 -66.35794 2305 ft 8 kts 168°
2026-05-06 00:20 -33.28589 -66.35811 2309 ft 3 kts 312°
2026-05-06 00:20 -33.28559 -66.35815 2304 ft 0 kts
2026-05-06 00:21 -33.28456 -66.35803 2308 ft 47 kts
2026-05-06 00:21 -33.27876 -66.35728 2300 ft 118 kts
2026-05-06 00:21 -33.26856 -66.35553 2318 ft 174 kts 11°
2026-05-06 00:21 -33.25677 -66.35371 3087 ft 178 kts
2026-05-06 00:22 -33.24428 -66.35197 4017 ft 181 kts
2026-05-06 00:22 -33.23222 -66.34557 4493 ft 200 kts 37°
2026-05-06 00:22 -33.22411 -66.33070 3484 ft 242 kts 73°
2026-05-06 00:22 -33.22601 -66.31050 3796 ft 245 kts 115°
2026-05-06 00:23 -33.23389 -66.29293 5024 ft 243 kts 114°
2026-05-06 00:23 -33.23943 -66.27384 6109 ft 243 kts 98°
2026-05-06 00:23 -33.24130 -66.25293 6644 ft 267 kts 88°
2026-05-06 00:23 -33.24169 -66.22965 7166 ft 290 kts 89°
2026-05-06 00:24 -33.24308 -66.20525 8181 ft 295 kts 92°
2026-05-06 00:24 -33.24526 -66.18069 9287 ft 299 kts 94°
2026-05-06 00:24 -33.24779 -66.15578 10281 ft 312 kts 94°
2026-05-06 00:24 -33.25082 -66.12902 10856 ft 336 kts 96°
2026-05-06 00:25 -33.25452 -66.10099 11707 ft 347 kts 97°
2026-05-06 00:25 -33.25811 -66.07228 12639 ft 355 kts 97°
2026-05-06 00:25 -33.26154 -66.04256 13526 ft 363 kts 97°
2026-05-06 00:25 -33.26491 -66.01245 14406 ft 371 kts 97°
2026-05-06 00:26 -33.26834 -65.98161 15343 ft 377 kts 96°
2026-05-06 00:26 -33.27180 -65.95117 16203 ft 384 kts 97°
2026-05-06 00:26 -33.27565 -65.91929 17025 ft 392 kts 98°
2026-05-06 00:26 -33.27989 -65.88671 17765 ft 401 kts 98°
2026-05-06 00:27 -33.28439 -65.85405 18532 ft 406 kts 98°
2026-05-06 00:27 -33.28900 -65.82053 19266 ft 411 kts 98°
2026-05-06 00:27 -33.29358 -65.78619 20038 ft 415 kts 98°
2026-05-06 00:27 -33.29804 -65.75230 20769 ft 420 kts 98°
2026-05-06 00:28 -33.30277 -65.71716 21440 ft 426 kts 98°
2026-05-06 00:28 -33.30770 -65.68193 22112 ft 431 kts 98°
2026-05-06 00:28 -33.31275 -65.64681 22735 ft 436 kts 99°
2026-05-06 00:28 -33.31804 -65.61076 23319 ft 441 kts 99°
2026-05-06 00:29 -33.32339 -65.57459 23890 ft 445 kts 99°
2026-05-06 00:29 -33.32878 -65.53812 24378 ft 449 kts 99°
2026-05-06 00:29 -33.33431 -65.50119 24895 ft 453 kts 99°
2026-05-06 00:29 -33.33995 -65.46377 25384 ft 458 kts 99°
2026-05-06 00:30 -33.34564 -65.42631 25863 ft 462 kts 100°
2026-05-06 00:30 -33.35153 -65.38813 26336 ft 466 kts 100°
2026-05-06 00:30 -33.35746 -65.34994 26792 ft 470 kts 100°
2026-05-06 00:30 -33.36350 -65.31134 27262 ft 474 kts 100°
2026-05-06 00:31 -33.36959 -65.27242 27741 ft 476 kts 101°
2026-05-06 00:31 -33.37574 -65.23340 28161 ft 480 kts 101°
2026-05-06 00:31 -33.38204 -65.19399 28572 ft 484 kts 101°
2026-05-06 00:31 -33.38837 -65.15471 28969 ft 487 kts 101°
2026-05-06 00:32 -33.39484 -65.11477 29374 ft 491 kts 101°
2026-05-06 00:32 -33.40142 -65.07425 29737 ft 494 kts 101°
2026-05-06 00:32 -33.40796 -65.03413 30081 ft 497 kts 101°
2026-05-06 00:32 -33.41466 -64.99326 30387 ft 500 kts 101°
2026-05-06 00:33 -33.42136 -64.95238 30716 ft 502 kts 101°
2026-05-06 00:33 -33.42814 -64.91110 30981 ft 507 kts 101°
2026-05-06 00:33 -33.43508 -64.86907 31265 ft 510 kts 101°
2026-05-06 00:33 -33.44191 -64.82782 31541 ft 513 kts 101°
2026-05-06 00:34 -33.44887 -64.78588 31812 ft 516 kts 101°
2026-05-06 00:34 -33.45591 -64.74355 32067 ft 519 kts 101°
2026-05-06 00:34 -33.46297 -64.70110 32381 ft 520 kts 101°
2026-05-06 00:34 -33.47005 -64.65864 32720 ft 521 kts 101°
2026-05-06 00:35 -33.47715 -64.61616 33046 ft 521 kts 101°
2026-05-06 00:35 -33.48428 -64.57362 33364 ft 522 kts 101°
2026-05-06 00:35 -33.49146 -64.53085 33655 ft 523 kts 101°
2026-05-06 00:35 -33.49847 -64.48807 33931 ft 523 kts 100°
2026-05-06 00:36 -33.50530 -64.44534 34305 ft 520 kts 101°
2026-05-06 00:36 -33.51206 -64.40284 34499 ft 522 kts 101°
2026-05-06 00:36 -33.51891 -64.36002 34693 ft 523 kts 101°
2026-05-06 00:36 -33.52576 -64.31723 34862 ft 525 kts 101°
2026-05-06 00:37 -33.53259 -64.27458 35083 ft 525 kts 101°
2026-05-06 00:37 -33.53953 -64.23118 35306 ft 526 kts 101°
2026-05-06 00:37 -33.54631 -64.18861 35521 ft 526 kts 101°
2026-05-06 00:37 -33.55315 -64.14550 35733 ft 527 kts 101°
2026-05-06 00:38 -33.56000 -64.10226 35957 ft 527 kts 101°
2026-05-06 00:38 -33.56682 -64.05907 36172 ft 528 kts 101°
2026-05-06 00:38 -33.57365 -64.01577 36310 ft 530 kts 101°
2026-05-06 00:38 -33.58051 -63.97221 36515 ft 531 kts 101°
2026-05-06 00:39 -33.58733 -63.92871 36760 ft 531 kts 101°
2026-05-06 00:39 -33.59413 -63.88532 36974 ft 531 kts 101°
2026-05-06 00:39 -33.60091 -63.84190 37176 ft 532 kts 101°
2026-05-06 00:39 -33.60773 -63.79808 37381 ft 532 kts 101°
2026-05-06 00:40 -33.61447 -63.75465 37575 ft 533 kts 101°
2026-05-06 00:40 -33.62126 -63.71078 37726 ft 534 kts 102°
2026-05-06 00:40 -33.62809 -63.66671 37895 ft 535 kts 102°
2026-05-06 00:41 -33.64166 -63.57860 37916 ft 536 kts 101°
2026-05-06 00:41 -33.65509 -63.49098 37918 ft 535 kts 101°
2026-05-06 00:42 -33.66843 -63.40349 37904 ft 536 kts 102°
2026-05-06 00:42 -33.68189 -63.31483 37908 ft 536 kts 102°
2026-05-06 00:43 -33.69512 -63.22728 37949 ft 536 kts 101°
2026-05-06 00:43 -33.70830 -63.13965 37902 ft 533 kts 101°
2026-05-06 00:44 -33.72145 -63.05161 37907 ft 535 kts 101°
2026-05-06 00:44 -33.73465 -62.96380 37904 ft 535 kts 102°
2026-05-06 00:45 -33.74829 -62.87591 37907 ft 535 kts 102°
2026-05-06 00:45 -33.76180 -62.78781 37924 ft 535 kts 102°
2026-05-06 00:46 -33.77513 -62.70005 37906 ft 535 kts 102°
2026-05-06 00:46 -33.78847 -62.61189 37914 ft 535 kts 102°
2026-05-06 00:47 -33.80164 -62.52416 37889 ft 534 kts 102°
2026-05-06 00:47 -33.81474 -62.43641 37909 ft 534 kts 102°
2026-05-06 00:48 -33.82783 -62.34845 37910 ft 534 kts 102°
2026-05-06 00:48 -33.84083 -62.26057 37913 ft 534 kts 102°
2026-05-06 00:49 -33.85376 -62.17272 37932 ft 533 kts 102°
2026-05-06 00:49 -33.86657 -62.08531 37912 ft 533 kts 102°
2026-05-06 00:50 -33.87937 -61.99744 37901 ft 532 kts 102°
2026-05-06 00:50 -33.89206 -61.90983 37901 ft 531 kts 102°
2026-05-06 00:51 -33.90468 -61.82233 37919 ft 531 kts 102°
2026-05-06 00:51 -33.91726 -61.73464 37924 ft 531 kts 102°
2026-05-06 00:52 -33.92974 -61.64706 37921 ft 531 kts 102°
2026-05-06 00:52 -33.94217 -61.55925 37929 ft 531 kts 102°
2026-05-06 00:53 -33.95452 -61.47157 37928 ft 531 kts 102°
2026-05-06 00:53 -33.96681 -61.38394 37914 ft 529 kts 101°
2026-05-06 00:54 -33.97887 -61.29707 37939 ft 528 kts 101°
2026-05-06 00:54 -33.99105 -61.20903 37935 ft 528 kts 101°
2026-05-06 00:55 -34.00298 -61.12234 37933 ft 528 kts 101°
2026-05-06 00:55 -34.01496 -61.03473 37912 ft 528 kts 101°
2026-05-06 00:56 -34.02682 -60.94753 37948 ft 527 kts 102°
2026-05-06 00:56 -34.03861 -60.86048 37969 ft 527 kts 101°
2026-05-06 00:57 -34.05014 -60.77452 37880 ft 504 kts 101°
2026-05-06 00:57 -34.05562 -60.73340 37887 ft 486 kts 102°
2026-05-06 00:57 -34.06095 -60.69348 37972 ft 484 kts 102°
2026-05-06 00:58 -34.07001 -60.62612 37972 ft 494 kts 102°
2026-05-06 00:58 -34.08092 -60.54389 37987 ft 497 kts 102°
2026-05-06 00:59 -34.09173 -60.46170 37923 ft 495 kts 102°
2026-05-06 00:59 -34.10424 -60.36638 37944 ft 495 kts 102°
2026-05-06 01:00 -34.11317 -60.29790 37948 ft 495 kts 102°
2026-05-06 01:00 -34.12382 -60.21582 37941 ft 493 kts 102°
2026-05-06 01:01 -34.13439 -60.13395 37968 ft 492 kts 102°
2026-05-06 01:01 -34.14487 -60.05232 37945 ft 492 kts 102°
2026-05-06 01:02 -34.15524 -59.97113 37946 ft 492 kts 102°
2026-05-06 01:02 -34.16561 -59.88969 37795 ft 495 kts 102°
2026-05-06 01:02 -34.17095 -59.84786 36263 ft 514 kts 101°
2026-05-06 01:03 -34.17651 -59.80414 34605 ft 534 kts 100°
2026-05-06 01:03 -34.18211 -59.75943 32726 ft 551 kts 100°
2026-05-06 01:03 -34.18777 -59.71372 31665 ft 549 kts 99°
2026-05-06 01:03 -34.19340 -59.66823 30450 ft 547 kts 99°
2026-05-06 01:04 -34.19909 -59.62260 28902 ft 548 kts 99°
2026-05-06 01:04 -34.20474 -59.57747 27778 ft 539 kts 99°
2026-05-06 01:04 -34.21018 -59.53362 26590 ft 514 kts 99°
2026-05-06 01:04 -34.21535 -59.49184 25267 ft 492 kts 99°
2026-05-06 01:05 -34.22111 -59.45199 23864 ft 475 kts 107°
2026-05-06 01:05 -34.23422 -59.41622 22139 ft 458 kts 126°
2026-05-06 01:05 -34.25525 -59.38853 20329 ft 441 kts 146°
2026-05-06 01:05 -34.28118 -59.36981 18489 ft 429 kts 156°
2026-05-06 01:06 -34.30735 -59.35363 16562 ft 424 kts 153°
2026-05-06 01:06 -34.33168 -59.33430 15511 ft 403 kts 145°
2026-05-06 01:06 -34.35250 -59.31341 14891 ft 375 kts 141°
2026-05-06 01:06 -34.37097 -59.29328 14415 ft 350 kts 140°
2026-05-06 01:07 -34.38880 -59.27404 13976 ft 340 kts 141°
2026-05-06 01:07 -34.40667 -59.25562 13485 ft 324 kts 142°
2026-05-06 01:07 -34.42381 -59.23848 13103 ft 317 kts 143°
2026-05-06 01:07 -34.44083 -59.22170 12672 ft 316 kts 142°
2026-05-06 01:08 -34.45776 -59.20483 12262 ft 313 kts 142°
2026-05-06 01:08 -34.47436 -59.18803 11859 ft 310 kts 141°
2026-05-06 01:08 -34.49077 -59.17133 11456 ft 306 kts 141°
2026-05-06 01:08 -34.50695 -59.15488 11037 ft 302 kts 141°
2026-05-06 01:09 -34.52296 -59.13864 10640 ft 299 kts 141°
2026-05-06 01:09 -34.53877 -59.12262 10257 ft 295 kts 141°
2026-05-06 01:09 -34.55423 -59.10697 9869 ft 291 kts 141°
2026-05-06 01:09 -34.56969 -59.09133 9483 ft 288 kts 141°
2026-05-06 01:10 -34.58504 -59.07572 9089 ft 285 kts 141°
2026-05-06 01:10 -34.59999 -59.06051 8701 ft 267 kts 141°
2026-05-06 01:10 -34.61384 -59.04643 8384 ft 252 kts 141°
2026-05-06 01:10 -34.62680 -59.03328 8061 ft 243 kts 141°
2026-05-06 01:11 -34.63986 -59.02006 7785 ft 252 kts 142°
2026-05-06 01:11 -34.65360 -59.00615 7459 ft 259 kts 142°
2026-05-06 01:11 -34.66738 -58.99213 7084 ft 261 kts 142°
2026-05-06 01:11 -34.68127 -58.97794 6726 ft 262 kts 142°
2026-05-06 01:12 -34.69535 -58.96358 6378 ft 263 kts 142°
2026-05-06 01:12 -34.70935 -58.94932 6029 ft 262 kts 142°
2026-05-06 01:12 -34.72334 -58.93509 5691 ft 261 kts 142°
2026-05-06 01:12 -34.73712 -58.92093 5359 ft 260 kts 138°
2026-05-06 01:13 -34.74873 -58.90401 5032 ft 260 kts 127°
2026-05-06 01:13 -34.75917 -58.88619 4689 ft 259 kts 117°
2026-05-06 01:13 -34.76366 -58.86512 4356 ft 257 kts 95°
2026-05-06 01:13 -34.76596 -58.84388 4045 ft 255 kts 102°
2026-05-06 01:14 -34.77437 -58.80339 3532 ft 235 kts 99°
2026-05-06 01:14 -34.77734 -58.78424 3236 ft 226 kts 101°
2026-05-06 01:14 -34.78085 -58.76593 2925 ft 217 kts 101°
2026-05-06 01:15 -34.78408 -58.74851 2621 ft 203 kts 100°
2026-05-06 01:15 -34.78691 -58.73224 2337 ft 190 kts 100°
2026-05-06 01:15 -34.78963 -58.71728 2169 ft 174 kts 100°
2026-05-06 01:15 -34.79209 -58.70369 2101 ft 156 kts 100°
2026-05-06 01:16 -34.79432 -58.69130 1980 ft 147 kts 100°
2026-05-06 01:16 -34.79653 -58.67900 1665 ft 153 kts 101°
2026-05-06 01:16 -34.79870 -58.66704 1618 ft 128 kts 101°
2026-05-06 01:16 -34.80046 -58.65696 2039 ft 132 kts 99°
2026-05-06 01:17 -34.80221 -58.64633 1953 ft 122 kts 99°
2026-05-06 01:17 -34.80390 -58.63652 1714 ft 118 kts 102°
2026-05-06 01:17 -34.80596 -58.62657 1501 ft 122 kts 100°
2026-05-06 01:17 -34.80783 -58.61646 1426 ft 126 kts 99°
2026-05-06 01:18 -34.80962 -58.60583 1431 ft 130 kts 99°
2026-05-06 01:18 -34.81152 -58.59496 1163 ft 133 kts 101°
2026-05-06 01:18 -34.81357 -58.58383 800 ft 135 kts 100°
2026-05-06 01:18 -34.81557 -58.57281 484 ft 130 kts 102°
2026-05-06 01:19 -34.81739 -58.56246 310 ft 125 kts 101°
2026-05-06 01:19 -34.81923 -58.55211 121 ft 126 kts 101°
2026-05-06 01:19 -34.82095 -58.54225 87 ft 105 kts 100°
2026-05-06 01:19 -34.82226 -58.53541 84 ft 63 kts 102°
2026-05-06 01:20 -34.82305 -58.53068 81 ft 54 kts 101°
2026-05-06 01:20 -34.82359 -58.52815 82 ft 5 kts 57°
2026-05-06 01:20 -34.82349 -58.52823 83 ft 1 kts 308°
2026-05-06 01:20 -34.82345 -58.52835 83 ft 3 kts 295°
2026-05-06 01:21 -34.82318 -58.52878 84 ft 10 kts 333°
2026-05-06 01:21 -34.82226 -58.52910 81 ft 18 kts 344°
2026-05-06 01:21 -34.82081 -58.52961 72 ft 23 kts 344°
2026-05-06 01:21 -34.82006 -58.53122 73 ft 23 kts 283°
2026-05-06 01:22 -34.81973 -58.53285 71 ft 16 kts 284°
2026-05-06 01:22 -34.81945 -58.53423 74 ft 17 kts 284°
2026-05-06 01:22 -34.81910 -58.53560 70 ft 17 kts 308°
2026-05-06 01:22 -34.81816 -58.53526 71 ft 18 kts 46°
2026-05-06 01:23 -34.81717 -58.53403 68 ft 22 kts 45°
2026-05-06 01:23 -34.81604 -58.53264 71 ft 21 kts 45°
2026-05-06 01:23 -34.81506 -58.53267 75 ft 18 kts 301°
2026-05-06 01:23 -34.81451 -58.53389 75 ft 14 kts 299°
2026-05-06 01:24 -34.81403 -58.53494 71 ft 13 kts 298°
2026-05-06 01:24 -34.81385 -58.53535 72 ft 0 kts 298°
2026-05-06 01:25 -34.81384 -58.53536 74 ft 1 kts 298°
2026-05-06 01:25 -34.81379 -58.53562 74 ft 6 kts 271°
2026-05-06 01:26 -34.81422 -58.53606 74 ft 12 kts 200°
2026-05-06 01:26 -34.81515 -58.53654 74 ft 17 kts 208°
2026-05-06 01:26 -34.81617 -58.53753 66 ft 19 kts 223°
2026-05-06 01:26 -34.81709 -58.53867 66 ft 17 kts 231°
2026-05-06 01:27 -34.81767 -58.53986 69 ft 15 kts 240°
2026-05-06 01:27 -34.81793 -58.54081 64 ft 0 kts 269°
2026-05-06 01:27 -34.81793 -58.54084 65 ft 1 kts 269°
2026-05-06 01:27 -34.81793 -58.54094 65 ft 0 kts 269°
2026-05-06 01:28 -34.81793 -58.54102 66 ft 3 kts 271°
2026-05-06 01:28 -34.81790 -58.54137 67 ft 0 kts 279°